Weather History for KENL - January, 2012

Change the Weather History Date:

Monday, January 9, 2012

  Actual Average (KSLO) Record (KSLO)
Temperature  
Mean Temperature 39 °F -  
Max Temperature 50 °F 34 °F 63 °F (1963)
Min Temperature 28 °F 18 °F -4 °F (1976)
Degree Days  
Heating Degree Days 26    
Moisture  
Dew Point 28 °F    
Average Humidity 66    
Maximum Humidity 91    
Minimum Humidity 35    
Precipitation  
Precipitation 0.00 in - - ()
Sea Level Pressure  
Sea Level Pressure 30.19 in    
Wind  
Wind Speed 3 mph (WNW)    
Max Wind Speed 7 mph    
Max Gust Speed -    
Visibility 10 miles    
Events      
Averages and records for this station are not official NWS values.
T = Trace of Precipitation, MM = Missing Value Source: NWS Daily Summary

Daily Weather History Graph

Daily Weather History Graph

Search for Another Location

Airport or City:

Trip Planner

Search our weather history database for the weather conditions in past years. The results will help you decide how hot, cold, wet, or windy it might be!

Date:

Astronomy

Jan. 09, 2012 Rise Set
Actual Time 7:13 AM CST 4:52 PM CST
Civil Twilight 6:44 AM CST 5:22 PM CST
Nautical Twilight 6:11 AM CST 5:55 PM CST
Astronomical Twilight 5:39 AM CST 6:27 PM CST
Moon 5:38 PM CST (1/9) 7:14 AM CST (1/9)
Length of Visible Light 10h 37m
Length of Day
9h 38m
Full, 100% of the Moon is Illuminated
Jan 9
Full
Jan 16
Last Quarter
Jan 23
New
Jan 30
First Quarter
Feb 7
Full

Hourly Weather History & Observations

Time (CST) Temp. Windchill Dew Point Humidity Pressure Visibility Wind Dir Wind Speed Gust Speed Precip Events Conditions
12:15 AM 40.6 °F 38.6 °F 27.9 °F 60% 30.23 in 10.0 mi ENE 3.5 mph - N/A   Overcast
12:35 AM 39.4 °F 34.5 °F 28.0 °F 64% 30.23 in 10.0 mi North 6.9 mph - N/A   Mostly Cloudy
12:55 AM 38.3 °F 34.8 °F 27.5 °F 65% 30.23 in 10.0 mi North 4.6 mph - N/A   Scattered Clouds
1:15 AM 36.1 °F 32.3 °F 28.2 °F 73% 30.23 in 10.0 mi North 4.6 mph - N/A   Scattered Clouds
1:35 AM 37.9 °F 34.4 °F 28.6 °F 69% 30.23 in 10.0 mi North 4.6 mph - N/A   Scattered Clouds
1:55 AM 35.1 °F 32.2 °F 28.4 °F 77% 30.23 in 10.0 mi North 3.5 mph - N/A   Clear
2:15 AM 34.7 °F 31.8 °F 27.9 °F 76% 30.24 in 10.0 mi North 3.5 mph - N/A   Clear
2:35 AM 34.5 °F 30.4 °F 28.4 °F 78% 30.25 in 10.0 mi North 4.6 mph - N/A   Clear
2:55 AM 34.5 °F - 27.9 °F 77% 30.24 in 10.0 mi Calm Calm - N/A   Scattered Clouds
3:15 AM 34.0 °F - 28.4 °F 80% 30.23 in 10.0 mi Calm Calm - N/A   Scattered Clouds
3:35 AM 33.3 °F - 28.4 °F 82% 30.23 in 10.0 mi Calm Calm - N/A   Scattered Clouds
3:55 AM 33.4 °F - 28.8 °F 83% 30.22 in 10.0 mi Calm Calm - N/A   Mostly Cloudy
4:15 AM 32.0 °F - 27.9 °F 85% 30.21 in 10.0 mi Calm Calm - N/A   Scattered Clouds
4:35 AM 32.0 °F - 27.9 °F 85% 30.20 in 10.0 mi Calm Calm - N/A   Clear
4:55 AM 31.8 °F - 27.0 °F 82% 30.19 in 10.0 mi Calm Calm - N/A   Clear
5:15 AM 30.2 °F - 26.6 °F 86% 30.19 in 10.0 mi Calm Calm - N/A   Clear
5:35 AM 30.9 °F - 27.3 °F 86% 30.20 in 10.0 mi Calm Calm - N/A   Clear
5:55 AM 30.0 °F - 27.1 °F 89% 30.20 in 10.0 mi Calm Calm - N/A   Clear
6:15 AM 28.9 °F 22.8 °F 26.2 °F 90% 30.21 in 10.0 mi NNW 5.8 mph - N/A   Clear
6:35 AM 29.7 °F 23.7 °F 27.1 °F 90% 30.21 in 10.0 mi NNW 5.8 mph - N/A   Clear
6:55 AM 29.8 °F 26.3 °F 27.1 °F 90% 30.22 in 10.0 mi NNW 3.5 mph - N/A   Clear
7:15 AM 29.8 °F - 27.0 °F 89% 30.23 in 10.0 mi Calm Calm - N/A   Clear
7:35 AM 29.3 °F - 26.4 °F 89% 30.23 in 7.0 mi Calm Calm - N/A   Clear
7:55 AM 30.0 °F - 27.5 °F 90% 30.22 in 7.0 mi Calm Calm - N/A   Clear
8:15 AM 32.0 °F - 29.7 °F 91% 30.22 in 7.0 mi Calm Calm - N/A   Clear
8:35 AM 33.8 °F - 30.4 °F 87% 30.22 in 7.0 mi Calm Calm - N/A   Clear
8:55 AM 35.4 °F - 30.0 °F 81% 30.22 in 10.0 mi Calm Calm - N/A   Clear
9:15 AM 37.2 °F - 30.2 °F 76% 30.22 in 10.0 mi Calm Calm - N/A   Clear
9:35 AM 38.8 °F - 29.8 °F 70% 30.22 in 10.0 mi Calm Calm - N/A   Clear
9:55 AM 41.0 °F - 30.2 °F 65% 30.23 in 10.0 mi Calm Calm - N/A   Clear
10:15 AM 42.3 °F - 29.8 °F 61% 30.23 in 10.0 mi Calm Calm - N/A   Clear
10:35 AM 43.7 °F - 28.9 °F 56% 30.22 in 10.0 mi Calm Calm - N/A   Clear
10:55 AM 44.8 °F 41.6 °F 28.4 °F 53% 30.22 in 10.0 mi West 5.8 mph - N/A   Clear
11:15 AM 45.9 °F 42.9 °F 28.6 °F 51% 30.20 in 10.0 mi WNW 5.8 mph - N/A   Clear
11:35 AM 46.4 °F 43.5 °F 28.8 °F 50% 30.18 in 10.0 mi NNW 5.8 mph - N/A   Clear
11:55 AM 46.8 °F - 28.4 °F 49% 30.18 in 10.0 mi NNW 6.9 mph - N/A   Clear
12:15 PM 46.9 °F - 28.0 °F 48% 30.18 in 10.0 mi WNW 4.6 mph - N/A   Clear
12:35 PM 48.0 °F - 28.2 °F 46% 30.17 in 10.0 mi WSW 4.6 mph - N/A   Clear
12:55 PM 48.0 °F - 24.8 °F 40% 30.16 in 10.0 mi West 4.6 mph - N/A   Clear
1:15 PM 48.7 °F - 24.6 °F 39% 30.16 in 10.0 mi West 5.8 mph - N/A   Clear
1:35 PM 48.7 °F - 23.7 °F 38% 30.15 in 10.0 mi West 4.6 mph - N/A   Clear
1:55 PM 49.3 °F - 24.4 °F 38% 30.15 in 10.0 mi West 3.5 mph - N/A   Clear
2:15 PM 50.0 °F - 23.0 °F 35% 30.13 in 10.0 mi West 5.8 mph - N/A   Clear
2:35 PM 49.5 °F - 24.8 °F 38% 30.13 in 10.0 mi WNW 4.6 mph - N/A   Clear
2:55 PM 50.0 °F - 27.3 °F 41% 30.13 in 10.0 mi WSW 5.8 mph - N/A   Clear
3:15 PM 48.6 °F - 26.8 °F 43% 30.14 in 10.0 mi WSW 5.8 mph - N/A   Clear
3:35 PM 46.9 °F - 28.8 °F 49% 30.15 in 10.0 mi SW 5.8 mph - N/A   Clear
3:55 PM 46.8 °F - 29.3 °F 51% 30.14 in 10.0 mi SW 5.8 mph - N/A   Clear
4:15 PM 46.4 °F 44.3 °F 29.1 °F 51% 30.14 in 10.0 mi West 4.6 mph - N/A   Clear
4:35 PM 44.6 °F 41.4 °F 30.0 °F 57% 30.15 in 10.0 mi WSW 5.8 mph - N/A   Clear
4:55 PM 43.2 °F 39.0 °F 30.2 °F 60% 30.15 in 10.0 mi SSW 6.9 mph - N/A   Clear
5:15 PM 42.1 °F 39.2 °F 29.5 °F 61% 30.15 in 10.0 mi WSW 4.6 mph - N/A   Clear
5:35 PM 42.8 °F 41.1 °F 28.9 °F 58% 30.14 in 10.0 mi WSW 3.5 mph - N/A   Clear
5:55 PM 42.3 °F 38.6 °F 29.3 °F 60% 30.14 in 10.0 mi SW 5.8 mph - N/A   Clear
6:15 PM 39.0 °F 35.7 °F 30.4 °F 71% 30.13 in 10.0 mi SW 4.6 mph - N/A   Clear
6:35 PM 39.9 °F 36.7 °F 29.1 °F 65% 30.13 in 10.0 mi SW 4.6 mph - N/A   Clear
6:55 PM 38.3 °F 34.8 °F 28.4 °F 68% 30.14 in 10.0 mi WSW 4.6 mph - N/A   Clear
7:15 PM 37.9 °F 34.4 °F 28.2 °F 68% 30.13 in 10.0 mi WSW 4.6 mph - N/A   Clear
7:35 PM 38.5 °F 36.1 °F 28.6 °F 68% 30.14 in 10.0 mi SW 3.5 mph - N/A   Clear
7:55 PM 38.8 °F 35.4 °F 28.2 °F 66% 30.14 in 10.0 mi WSW 4.6 mph - N/A   Clear
8:15 PM 35.4 °F - 27.7 °F 73% 30.13 in 10.0 mi Calm Calm - N/A   Clear
8:35 PM 35.4 °F 31.5 °F 28.2 °F 75% 30.13 in 10.0 mi SW 4.6 mph - N/A   Clear
8:55 PM 36.7 °F 31.2 °F 28.4 °F 72% 30.14 in 10.0 mi SW 6.9 mph - N/A   Clear
9:15 PM 36.5 °F 31.8 °F 28.0 °F 71% 30.13 in 10.0 mi SW 5.8 mph - N/A   Clear
9:35 PM 34.5 °F 29.4 °F 26.6 °F 73% 30.13 in 10.0 mi WSW 5.8 mph - N/A   Clear
9:55 PM 36.3 °F 30.8 °F 27.9 °F 71% 30.13 in 10.0 mi SW 6.9 mph - N/A   Clear
10:15 PM 34.9 °F 29.0 °F 27.0 °F 73% 30.13 in 10.0 mi SW 6.9 mph - N/A   Clear
10:35 PM 36.5 °F 31.0 °F 27.5 °F 70% 30.13 in 10.0 mi SW 6.9 mph - N/A   Clear
10:55 PM 35.4 °F 29.7 °F 27.3 °F 72% 30.13 in 10.0 mi SW 6.9 mph - N/A   Clear
11:15 PM 35.2 °F 31.2 °F 26.4 °F 70% 30.12 in 10.0 mi WSW 4.6 mph - N/A   Clear
11:35 PM 33.3 °F - 26.4 °F 76% 30.11 in 10.0 mi Calm Calm - N/A   Clear
11:55 PM 33.1 °F 30.0 °F 26.4 °F 77% 30.11 in 10.0 mi SSW 3.5 mph - N/A   Clear